Location: La B�doule
(43.2468°N, 5.5934°E)
Time: 15:58:04
(UTC+00:00)

Cosmos 2322 Rocket - Pass Details

Date: 07 June 2020
Orbit: 833 x 850 km, 71.0° (Epoch: 09 July)

Event Time Altitude Azimuth Distance (km) Brightness Sun altitude
Exits shadow 01:29:27 31° 180° (S) 1,426 2.9 -19.0°
Maximum altitude 01:32:05 63° 110° (ESE) 926 2.4 -18.8°
Drops below altitude 10° 01:37:38 10° 31° (NNE) 2,451 5.9 -18.3°
Sets 01:40:05 0° 28° (NNE) 3,389 7.1 -18.1°
